GFSGL_500_rhum_204.txt.gz
RH
93 88 94 99 88 98 96 92 86 94 69 66 59 50 41 41 38 42 46 46 47 41 38 37 37 34 32 30 29 29 35 52 58 62 62 60 59 60 57 54 54 54 52
88 79 82 94 97 95 84 84 67 51 48 41 50 46 43 42 40 43 39 38 40 41 42 40 37 33 31 38 54 73 80 78 74 69 68 70 70 65 58 53 50 46 44
92 94 78 76 66 66 61 59 31 27 30 34 37 35 34 33 39 42 48 54 49 41 35 34 41 58 73 77 78 81 80 80 76 71 62 57 54 51 46 40 36 36 34
95 98 92 60 36 38 39 41 41 41 45 40 36 36 42 49 64 70 64 64 46 39 51 72 79 79 80 81 77 73 68 65 61 56 51 46 42 36 33 32 28 22 17
93 64 42 33 36 30 33 39 38 41 46 41 41 53 68 61 54 50 47 43 53 77 84 84 83 77 70 66 64 61 57 53 50 44 37 34 30 23 18 18 16 15 13
38 33 34 34 41 45 49 44 45 56 54 41 36 48 55 51 48 58 75 83 85 82 81 74 66 64 63 62 56 52 46 37 29 22 19 17 15 13 11 9 8 7 6
26 33 39 42 42 38 38 46 45 54 64 60 51 51 74 93 94 92 87 82 82 73 64 58 57 59 53 46 38 29 23 17 13 13 12 9 7 5 5 4 4 4 4
42 43 46 52 51 63 69 63 49 46 61 81 94 96 98 96 90 87 85 76 63 55 58 54 44 36 30 24 20 14 12 10 6 4 3 3 3 4 4 4 5 6 6
57 58 57 50 45 47 71 83 84 90 97 98 98 96 90 92 91 80 68 60 52 47 40 33 25 22 17 12 10 7 5 4 3 3 4 6 9 10 11 11 11 11 11
46 53 69 97 96 89 93 100 98 94 93 94 97 96 93 81 72 68 66 50 36 31 25 21 16 11 9 6 4 4 3 2 2 4 7 16 21 20 18 17 16 17 22
95 98 100 97 96 94 94 93 94 97 99 96 91 86 75 70 66 55 44 36 29 23 18 13 9 7 5 4 3 3 3 4 5 7 9 20 29 26 23 30 35 38 34
99 98 97 94 93 97 100 97 97 97 94 85 71 65 63 56 51 44 36 31 22 16 11 8 6 4 3 4 4 4 6 8 9 11 14 31 32 26 37 54 56 53 62
98 98 98 98 98 98 100 99 94 81 65 54 53 51 46 44 38 35 29 21 14 9 7 6 4 4 7 7 4 5 8 10 14 17 36 40 36 40 59 65 75 79 80
100 99 100 100 100 93 85 78 67 59 53 44 42 42 41 37 33 28 20 13 8 7 5 4 8 12 13 6 5 8 9 12 18 32 55 51 51 58 65 86 89 96 82
100 98 93 86 82 76 69 62 54 49 45 47 45 38 35 33 28 19 12 8 8 5 4 11 14 15 12 6 8 9 9 15 22 43 66 73 85 92 95 100 100 100 79
95 92 88 81 74 68 59 56 52 50 47 43 41 39 36 27 19 11 9 7 5 8 15 18 18 16 12 8 8 10 12 18 26 47 82 89 91 94 100 100 100 100 87
93 88 78 74 69 63 60 57 58 54 48 49 48 38 28 19 10 9 6 6 14 19 21 21 20 19 15 12 9 11 14 21 31 51 75 100 100 100 100 100 100 100 98
85 82 81 78 73 66 59 57 56 55 57 49 37 26 16 10 8 6 7 16 22 26 25 24 24 25 25 20 15 12 15 24 33 55 88 100 100 100 100 100 100 100 100
84 84 84 78 69 65 65 63 61 56 49 38 26 15 10 9 6 10 20 24 26 28 25 24 26 32 35 35 29 23 18 27 40 60 98 100 100 100 100 100 100 100 100
92 92 90 85 81 76 69 62 56 47 36 26 16 11 9 6 12 25 29 32 33 28 27 29 32 40 45 48 49 42 37 39 53 71 89 96 98 98 96 97 97 96 98
98 99 98 92 80 70 62 55 45 35 25 15 11 9 5 12 25 28 32 32 28 29 32 34 37 47 61 58 62 66 58 52 58 73 82 90 95 100 100 100 100 98 96
100 96 91 81 70 62 54 43 34 24 15 11 8 6 19 28 30 32 29 24 26 30 32 33 34 43 75 88 79 83 86 79 79 82 88 91 86 95 100 100 100 100 98
96 90 79 70 63 53 40 32 23 15 11 8 7 21 32 32 30 24 21 21 23 26 29 30 32 37 52 79 99 100 100 100 100 100 100 100 100 91 95 99 100 100 100
91 80 71 63 49 37 27 20 14 10 8 9 25 34 33 27 22 18 17 19 21 27 30 31 34 38 42 49 65 83 100 100 100 100 100 100 100 100 99 98 100 100 100
82 72 60 44 31 24 18 13 10 7 12 29 36 34 26 19 17 20 22 25 32 39 44 46 46 46 48 51 54 62 80 100 100 100 100 100 100 100 100 99 100 100 98
71 54 38 28 22 16 12 8 8 16 32 38 35 25 20 21 41 51 57 60 62 64 65 67 69 70 69 60 58 70 84 98 100 100 100 100 100 95 89 82 78 88 93

GFSGL_500_rhum_207.txt.gz
RH
60 96 96 94 98 96 93 97 96 83 85 90 79 67 63 54 41 40 38 40 33 31 33 39 39 35 36 38 30 35 32 30 30 39 54 58 56 54 53 50 47 50 54
75 80 91 96 95 97 89 92 95 79 81 85 62 56 48 39 37 41 43 38 36 32 30 35 35 37 38 42 43 39 55 69 67 63 62 63 60 60 58 56 55 51 49
91 99 95 84 96 93 95 91 84 77 94 85 52 45 35 33 37 34 33 31 34 38 47 39 31 39 46 55 73 74 72 70 68 62 57 56 51 48 46 44 43 40 36
100 86 90 86 95 98 97 97 98 75 52 45 42 36 34 35 39 42 52 47 36 30 38 46 60 71 74 73 74 74 70 65 58 50 41 32 24 21 16 13 12 11 10
87 83 94 98 98 98 98 92 52 37 33 35 34 38 45 51 46 37 34 40 44 51 72 80 80 79 77 73 71 64 51 39 28 22 18 14 12 10 8 6 5 4 4
94 98 100 96 95 91 59 54 62 39 46 49 48 51 44 42 49 50 48 67 78 79 84 87 82 81 77 67 50 34 28 22 17 13 10 8 7 5 4 3 3 2 2
86 96 78 75 62 39 52 44 43 44 56 56 47 66 60 48 64 83 82 80 81 84 87 81 80 70 51 39 31 25 18 13 10 10 8 6 5 3 3 2 2 2 2
60 62 51 37 30 25 41 54 53 45 50 63 53 52 78 88 89 89 89 89 91 83 82 72 52 43 35 28 22 16 12 10 9 7 5 4 3 3 3 3 3 3 4
56 52 42 35 36 38 42 49 58 54 53 78 90 89 94 100 99 100 93 86 87 73 54 49 41 34 27 20 15 12 10 7 5 4 4 5 6 5 5 5 6 7 8
51 53 56 57 59 60 57 55 81 98 99 100 100 100 100 100 99 95 86 67 48 45 43 38 30 25 18 13 11 9 7 4 4 5 10 9 6 6 8 10 11 14 23
51 52 55 62 74 93 100 97 100 100 100 100 100 99 100 99 88 68 54 50 43 36 33 29 24 17 13 11 9 6 4 5 8 11 12 7 6 8 11 17 29 35 28
97 98 100 100 100 100 100 100 100 100 100 98 100 99 84 71 58 48 40 34 33 30 29 25 18 14 12 8 6 5 9 12 14 13 10 6 7 9 13 27 46 39 41
100 100 100 100 100 100 100 100 99 98 99 94 83 68 59 49 41 36 35 37 37 34 27 19 14 11 7 6 7 11 15 16 14 11 9 7 8 10 18 46 52 52 61
100 100 100 100 100 100 98 98 99 91 80 68 56 45 41 41 43 46 43 38 34 28 20 12 10 7 6 8 14 17 18 17 14 12 10 8 9 12 23 60 67 74 86
100 100 100 99 99 100 100 93 82 71 61 54 47 42 42 48 46 42 39 37 30 22 13 10 7 6 8 15 20 19 16 17 17 14 13 10 11 15 34 83 95 97 90
100 100 100 100 100 98 90 79 67 60 54 51 50 46 46 47 48 45 40 30 20 13 10 7 7 9 16 21 22 19 19 19 21 20 17 13 13 19 34 70 97 98 97
100 100 98 96 88 79 71 65 60 61 67 62 56 54 54 52 48 41 30 20 14 11 8 7 10 19 23 24 21 22 24 28 30 31 26 20 18 27 50 89 100 100 100
97 94 92 90 86 81 76 75 80 84 79 70 67 63 57 50 42 32 24 17 12 9 7 12 20 24 25 23 23 28 31 37 42 46 42 33 27 34 64 91 98 96 97
79 86 89 90 88 84 80 79 82 82 82 79 69 59 51 42 33 25 19 14 10 8 16 23 24 24 22 24 28 32 35 49 58 65 66 53 46 49 68 85 96 100 100
72 78 84 85 85 84 82 82 84 84 77 66 58 50 43 32 22 17 13 9 9 19 24 23 21 19 21 26 29 33 42 60 88 84 86 75 65 64 73 82 92 98 98
100 98 96 92 89 88 90 93 85 74 65 57 50 42 32 22 16 11 8 10 25 27 23 19 17 18 22 29 35 36 38 55 91 100 100 100 99 94 93 93 90 97 100
98 95 91 88 89 90 88 80 72 64 56 47 38 27 20 15 11 7 9 26 27 22 17 17 19 19 23 26 29 33 38 45 54 85 100 100 100 100 100 100 100 100 100
92 91 88 88 89 86 79 72 64 55 44 34 26 20 14 9 6 13 29 28 21 18 30 38 45 49 53 55 56 55 52 49 53 65 91 100 100 100 100 100 100 100 100
94 91 89 90 86 79 73 64 53 42 33 26 19 12 7 6 18 31 29 21 23 45 48 48 50 54 61 66 68 67 68 66 64 72 82 99 100 100 100 100 100 100 100
90 91 90 85 80 73 64 50 39 32 26 19 11 7 7 22 33 31 23 26 49 51 53 55 58 64 69 74 79 83 82 81 80 85 95 100 100 100 100 100 97 93 98
85 87 85 81 71 59 47 38 31 23 15 8 6 12 28 36 32 24 27 53 54 57 59 60 62 66 74 82 85 87 86 92 95 95 99 100 100 100 100 96 81 84 78

GFSGL_500_rhum_213.txt.gz
RH
10 12 12 17 60 93 96 96 96 97 97 97 97 98 96 96 97 97 98 97 93 84 71 66 58 51 51 48 40 31 22 23 24 28 27 20 19 31 38 53 57 57 52
11 7 8 14 30 34 72 89 96 97 98 97 94 96 98 96 96 98 97 96 97 95 72 60 54 53 41 35 28 24 24 28 22 17 22 33 48 62 67 63 51 28 16
15 12 8 11 11 22 45 83 94 97 97 95 95 96 97 98 96 98 86 83 89 92 81 77 50 36 29 27 28 34 29 21 30 40 52 67 70 65 45 24 16 11 14
39 40 27 24 20 21 31 59 93 96 93 93 96 97 98 97 97 97 95 98 92 85 80 67 51 38 35 40 28 24 35 51 75 78 74 62 41 22 17 15 18 18 18
76 95 74 46 43 73 69 56 43 64 96 97 96 98 97 97 96 90 80 63 52 44 39 42 43 39 29 34 42 61 82 80 75 61 37 23 17 19 22 22 21 17 12
72 67 98 100 99 99 100 96 100 100 100 100 98 98 98 96 96 88 73 62 46 42 42 38 33 48 48 78 84 80 71 60 38 26 18 19 23 26 24 20 16 10 8
99 98 96 99 93 100 99 98 100 99 98 98 98 98 98 98 99 96 89 88 93 49 42 59 61 83 87 85 78 67 43 32 24 20 26 29 28 23 19 14 10 8 6
99 99 98 98 98 100 99 98 99 99 99 99 98 98 98 96 92 96 96 79 44 56 58 91 90 88 81 74 54 38 30 31 30 33 32 28 23 19 14 10 8 6 5
100 100 98 97 99 99 99 99 99 99 99 99 97 96 95 96 90 58 40 58 52 80 94 86 79 73 66 48 35 29 30 40 38 35 28 23 18 13 10 7 6 5 6
99 99 99 99 99 99 99 99 98 98 97 96 98 94 64 45 52 56 55 78 97 87 84 80 75 60 46 38 33 41 45 43 37 29 23 16 12 9 7 6 6 9 14
96 97 95 97 98 99 96 96 95 94 90 69 49 47 53 51 54 68 90 86 82 80 80 73 57 49 45 43 49 54 49 38 30 23 17 12 9 6 7 11 14 16 15
40 48 61 60 86 65 58 53 55 51 50 53 54 55 63 81 86 86 85 80 77 80 69 55 50 46 57 63 56 47 38 29 22 17 13 9 6 7 13 16 16 17 17
70 66 70 73 65 60 60 58 56 54 56 68 80 86 88 89 88 89 85 84 83 68 49 47 59 68 62 55 47 38 30 22 16 12 9 7 7 13 16 16 18 20 23
73 63 56 54 54 56 58 65 75 86 91 93 94 92 92 90 88 89 91 82 62 57 51 62 65 60 56 47 38 28 21 16 13 10 7 8 13 14 15 16 21 27 29
100 100 100 100 100 94 90 94 98 97 98 100 100 100 98 94 92 91 80 69 60 59 66 68 64 56 47 37 29 22 17 13 9 7 9 12 13 14 15 17 25 30 38
100 100 100 100 100 100 100 100 99 100 100 96 97 99 100 100 96 78 63 64 68 68 69 63 55 46 38 30 22 17 12 9 8 12 14 15 21 26 25 23 25 31 50
100 100 100 100 100 100 98 99 99 96 96 100 100 100 95 71 65 71 66 68 70 67 60 52 45 38 31 23 18 13 9 8 14 16 18 28 30 33 36 36 35 37 59
100 100 100 100 100 100 100 100 100 100 100 96 77 68 70 72 71 66 66 66 63 57 50 44 38 32 25 19 14 10 8 17 18 19 30 32 35 41 45 48 47 45 58
100 100 100 100 100 99 99 98 95 91 84 76 71 72 74 71 67 63 60 56 52 48 44 39 33 27 20 15 9 7 17 20 19 30 36 41 45 48 56 59 60 58 59
100 100 100 100 100 98 92 89 81 74 73 73 68 66 67 65 60 56 52 49 45 43 39 35 28 21 15 9 7 16 21 20 30 38 43 45 50 56 60 65 69 70 74
100 99 91 84 85 86 79 77 78 79 76 71 67 63 60 57 53 51 49 46 45 43 38 29 22 16 9 7 18 23 21 34 42 45 48 52 59 66 69 72 70 75 82
95 85 77 79 82 84 82 71 66 66 66 62 55 51 48 47 49 48 48 47 44 38 30 22 14 8 7 20 24 23 38 46 49 51 56 61 68 75 76 72 76 90 97
95 87 80 81 83 77 66 61 58 56 53 49 46 46 48 50 51 48 46 44 38 29 19 12 7 10 24 27 26 37 47 51 54 60 64 69 77 82 76 75 80 82 95
98 97 89 81 75 73 67 58 52 45 41 44 48 50 50 50 47 45 42 34 24 16 9 6 14 28 28 28 42 50 53 57 63 67 65 72 84 76 74 69 64 77 91
97 91 91 76 56 50 45 42 44 47 49 51 52 49 48 48 45 36 26 18 11 6 8 20 33 30 26 40 54 58 62 62 71 70 74 78 70 58 50 67 90 90 95
97 87 67 56 53 51 54 56 53 53 54 53 50 48 45 37 27 18 11 7 7 12 27 36 31 26 34 52 58 61 54 69 79 81 79 67 43 37 62 98 98 95 89

GFSGL_500_rhum_219.txt.gz
RH
10 13 24 15 12 20 37 58 40 39 53 93 97 97 90 72 52 49 31 33 40 35 32 34 46 65 82 92 99 98 96 98 99 93 80 67 63 64 60 54 42 35 30
25 74 97 69 20 12 13 24 33 29 26 77 78 68 93 100 97 94 93 75 49 36 40 48 67 87 97 98 97 97 100 98 86 88 91 86 90 88 54 44 34 30 27
46 66 94 88 62 39 14 9 16 19 17 58 52 45 85 98 93 96 96 94 96 95 95 97 98 99 93 96 98 99 98 97 98 96 100 80 55 48 40 36 30 26 53
56 54 90 100 100 86 34 10 8 11 19 30 38 47 74 85 74 80 94 95 98 95 96 86 100 100 97 99 99 96 97 97 93 81 56 52 46 38 28 29 53 60 51
69 59 76 98 100 100 81 92 43 41 20 22 50 56 74 61 63 71 91 78 79 90 100 99 98 98 100 99 98 99 97 95 82 72 68 57 31 39 50 55 57 46 40
76 91 61 85 99 98 96 99 100 100 97 69 36 74 77 86 96 64 60 92 92 98 98 98 98 98 97 97 97 97 96 94 82 75 48 43 53 57 55 56 48 35 23
77 72 92 69 74 96 97 100 99 100 98 100 49 66 100 92 99 100 100 98 98 100 98 98 98 98 99 100 98 97 94 77 63 57 56 56 55 59 58 45 30 32 34
95 96 98 87 78 90 99 99 97 80 99 90 100 100 98 100 99 99 98 98 99 99 98 98 97 98 97 96 93 76 60 61 66 58 58 62 63 52 40 35 34 33 32
97 100 100 98 88 74 99 98 99 88 78 82 100 99 98 98 99 99 99 98 98 97 96 98 98 96 89 54 49 55 73 63 57 59 68 60 52 44 40 38 33 30 29
80 97 96 92 86 84 99 99 98 100 100 100 93 100 100 100 100 99 99 98 98 98 98 100 91 54 44 50 72 70 63 59 66 67 61 57 49 41 40 34 32 26 20
67 100 100 100 94 99 99 99 99 99 99 99 99 99 99 99 99 98 100 99 99 97 97 90 55 48 70 72 70 65 65 67 68 66 58 46 44 38 36 32 25 20 17
65 97 99 98 99 100 99 99 99 99 99 100 99 99 99 99 100 100 99 99 98 98 81 48 67 76 77 72 71 69 66 69 63 49 43 38 35 32 26 21 20 17 14
82 61 95 98 99 98 98 99 99 98 99 100 100 100 100 100 98 99 98 96 93 55 63 84 82 81 76 75 73 70 63 53 49 41 36 33 28 22 20 21 19 15 10
99 93 55 49 98 98 98 99 100 100 100 100 100 98 98 98 97 91 63 56 76 89 92 87 83 78 73 70 64 60 56 46 41 37 31 24 24 24 22 19 14 10 7
100 100 98 100 100 94 99 94 99 100 99 98 97 92 80 66 63 74 87 96 98 92 85 78 74 74 68 64 62 54 46 40 36 26 20 22 23 23 20 14 9 6 8
100 100 100 100 100 100 100 100 99 89 83 81 78 82 89 88 87 92 95 95 89 81 78 74 72 72 64 53 47 43 36 26 22 23 23 24 23 19 13 9 6 8 13
100 100 100 100 100 100 100 100 100 98 97 97 96 91 88 91 96 96 88 82 83 79 80 75 66 61 54 49 38 29 24 23 23 24 23 22 18 14 10 7 9 16 22
100 100 100 100 100 98 99 98 100 100 98 94 95 98 99 97 94 92 86 81 76 74 66 62 56 48 38 28 23 22 23 25 25 24 22 18 14 10 7 10 18 23 31
100 100 100 100 99 100 100 100 100 100 100 100 100 100 97 93 92 85 72 65 61 53 43 33 24 19 18 20 22 24 26 26 26 22 18 13 8 7 12 20 24 35 40
100 100 100 100 100 100 100 100 100 100 100 100 98 92 84 74 68 63 56 48 41 35 30 26 20 18 18 20 23 25 26 26 21 16 12 8 7 13 21 25 37 44 46
100 100 100 100 100 100 100 100 100 100 95 82 70 65 67 69 61 54 45 37 31 28 25 22 20 19 20 22 24 27 26 21 16 11 8 7 14 24 25 39 47 48 52
100 100 100 100 100 100 100 100 100 96 83 65 61 61 59 53 46 37 30 26 24 23 22 22 22 22 23 27 29 26 20 14 10 7 8 18 28 26 38 50 50 54 67
100 100 100 100 100 100 100 100 97 86 77 69 64 62 54 43 34 27 23 22 20 19 21 23 25 28 29 28 23 16 11 8 8 11 24 30 27 38 52 54 57 71 72
100 100 100 100 100 97 96 98 89 76 73 71 60 45 39 33 28 24 19 17 16 18 21 25 29 29 24 17 12 9 8 11 17 30 31 29 43 56 57 62 79 78 61
100 100 100 100 100 94 92 91 79 74 61 48 43 41 34 25 20 17 17 19 21 26 29 29 24 17 12 10 9 12 20 27 35 34 32 43 59 60 64 85 85 70 41
100 100 100 100 95 89 83 70 66 59 52 44 36 28 23 19 18 18 21 27 32 31 24 18 13 10 9 11 19 29 35 38 38 35 38 56 63 77 91 93 80 54 43

GFSGL_500_rhum_222.txt.gz
RH
19 35 63 42 27 21 40 46 49 71 93 84 81 92 74 58 49 38 27 23 21 21 22 23 35 36 29 57 44 65 70 39 52 77 88 94 94 92 92 74 74 79 80
33 16 17 71 98 38 22 27 26 30 54 66 66 80 81 90 90 84 84 84 69 68 31 28 30 44 75 61 68 80 66 55 76 91 91 95 97 92 87 90 91 83 59
40 48 39 58 71 100 71 34 25 33 28 38 43 42 53 55 90 93 87 86 98 96 92 95 93 83 87 91 82 89 96 99 83 99 97 95 96 90 89 85 76 68 63
47 55 62 44 92 100 100 100 49 42 28 20 31 32 31 34 47 75 76 57 56 72 89 90 97 97 95 97 96 96 98 97 90 93 100 97 98 99 95 96 91 65 43
55 50 68 63 47 84 100 100 98 79 51 35 22 21 25 27 32 47 64 67 80 78 86 99 97 98 100 99 100 93 99 89 97 100 99 97 98 98 88 64 48 46 55
64 53 61 73 63 56 87 100 100 100 86 50 31 31 35 56 63 65 73 72 94 100 100 97 100 100 98 98 95 98 98 100 99 99 98 97 91 69 52 52 50 46 46
76 65 82 86 77 64 59 82 100 98 99 100 59 33 48 64 71 97 94 98 93 100 100 100 98 98 98 98 98 98 98 98 98 96 94 66 44 48 45 49 48 48 50
56 73 81 97 91 81 76 65 80 99 96 100 99 99 84 68 71 99 99 98 98 100 97 98 99 98 98 97 99 99 99 96 93 54 42 48 52 54 53 53 51 47 44
22 77 85 94 99 82 82 75 68 78 99 100 98 96 99 100 99 100 79 97 98 96 100 99 97 98 98 99 99 99 97 86 56 53 60 57 54 55 56 52 48 39 34
15 80 86 77 91 85 86 86 90 60 89 97 99 99 98 99 98 98 96 99 99 98 99 98 98 99 100 99 98 97 88 57 66 65 64 61 60 59 51 43 38 33 28
14 52 87 65 99 73 55 63 83 99 79 96 98 100 99 99 98 100 97 99 100 97 99 97 100 98 100 100 98 86 69 77 71 68 65 66 59 48 44 40 33 24 15
10 43 76 70 83 100 87 100 100 100 94 97 100 99 99 86 99 100 98 98 97 99 100 100 99 100 99 98 95 64 77 76 72 69 66 54 49 46 38 28 17 14 13
10 42 72 78 80 96 100 94 97 100 98 95 98 98 99 99 99 98 99 98 100 100 100 99 99 98 98 83 74 80 74 71 70 59 54 48 41 33 23 16 15 15 17
12 36 61 76 100 99 100 98 98 100 100 99 99 99 100 99 100 99 100 100 99 99 98 98 95 89 90 92 81 74 71 63 58 53 48 42 28 18 14 14 14 15 14
19 65 95 91 100 86 91 97 98 100 100 100 100 99 99 100 100 100 100 98 96 100 100 99 98 94 82 77 75 68 63 59 55 42 21 13 12 13 15 16 14 14 12
25 100 93 100 100 94 90 96 99 98 99 100 98 100 100 100 100 99 99 100 100 100 100 98 88 78 75 70 64 57 48 30 21 16 13 12 14 16 13 13 13 12 10
55 95 100 100 100 100 100 99 99 95 100 100 100 100 100 100 100 100 100 100 100 100 89 79 76 69 61 52 37 32 28 25 20 16 14 13 12 16 13 13 11 8 6
59 100 100 100 100 100 100 99 97 100 100 100 100 100 100 99 100 100 100 100 93 87 78 66 57 46 39 34 26 21 18 16 14 12 12 12 15 15 13 10 8 6 8
99 100 100 100 100 100 98 100 100 100 100 100 100 100 100 99 100 100 96 89 76 65 56 49 38 27 21 18 17 14 13 12 11 12 12 16 17 12 9 7 7 9 16
100 98 100 100 100 100 100 100 100 100 100 100 100 100 100 100 97 90 75 68 62 54 42 27 20 19 16 14 12 11 10 10 11 13 17 15 10 8 7 8 11 20 25
100 100 100 100 100 100 100 100 100 100 100 100 100 100 100 88 69 65 64 53 47 38 24 20 18 16 14 12 12 11 12 14 17 18 12 9 7 7 9 15 26 27 29
100 100 100 100 100 100 100 100 100 100 100 100 100 99 90 69 65 60 57 50 36 28 21 18 17 15 13 12 12 15 18 19 15 10 8 7 7 14 22 30 29 31 39
100 100 100 100 100 100 100 100 100 100 100 100 100 94 80 70 66 63 48 37 29 23 20 18 16 14 13 12 14 16 18 15 11 8 7 11 23 29 33 33 33 41 52
100 100 100 100 100 100 100 100 100 100 100 100 93 77 70 62 50 43 36 30 25 23 20 18 16 14 13 13 15 18 16 11 8 9 16 27 34 36 36 35 42 56 66
99 99 100 100 100 100 100 100 100 98 94 88 78 69 61 54 47 41 32 29 26 22 19 16 13 12 14 18 19 14 9 9 12 19 24 31 36 37 36 44 61 72 86
100 100 100 100 100 100 100 100 100 96 86 80 74 65 59 55 43 37 33 27 21 17 14 14 14 17 21 18 12 9 11 15 18 21 24 30 36 41 55 63 74 88 87

GFSGL_500_rhum_228.txt.gz
RH
76 96 100 97 98 99 89 91 80 89 95 96 97 98 97 82 75 68 52 51 41 31 25 24 18 18 19 20 21 41 37 21 19 20 20 21 25 26 34 41 76 69 82
69 66 96 100 84 100 78 68 72 87 94 93 98 96 97 96 95 76 60 61 51 42 33 28 31 76 94 94 82 38 37 75 69 81 25 31 38 72 93 84 87 86 89
72 69 48 100 88 98 81 61 66 80 97 95 93 95 96 98 100 95 92 78 87 77 52 51 32 27 27 37 49 39 76 70 37 42 84 87 98 94 94 97 89 87 89
83 71 70 55 100 100 84 70 73 69 81 98 93 90 93 81 86 95 96 97 96 96 96 76 48 43 45 41 67 64 78 56 73 99 96 96 94 91 90 95 96 94 88
99 90 69 69 52 96 100 93 99 97 97 100 90 98 94 91 90 97 95 89 74 82 100 100 93 76 64 61 74 89 97 98 98 98 99 97 91 89 91 98 95 92 88
12 70 97 64 69 48 82 98 100 100 100 91 94 100 99 98 97 99 98 93 68 69 98 100 97 100 99 98 97 98 99 98 98 100 97 92 83 84 93 88 82 83 90
13 9 22 77 71 60 51 47 83 99 94 90 82 98 99 98 100 97 80 94 73 75 100 100 100 99 98 99 98 98 98 97 98 97 97 96 92 90 89 77 76 83 100
14 14 12 9 41 78 66 68 61 48 95 100 99 96 89 98 100 100 100 98 76 96 100 100 100 99 99 100 99 99 99 97 99 96 91 95 88 89 94 92 93 97 99
12 13 14 14 7 21 76 79 74 56 50 76 98 99 100 100 100 93 100 98 94 95 100 100 100 97 100 96 100 100 99 96 98 95 92 95 96 100 100 100 100 98 96
10 10 13 14 15 10 12 71 76 67 61 53 55 81 98 100 100 100 98 96 100 99 99 99 92 89 96 96 93 100 95 99 95 97 96 98 96 99 100 100 99 99 95
16 12 13 18 15 15 12 16 67 69 85 69 56 59 66 86 98 99 99 100 100 97 92 97 96 81 68 49 52 71 86 100 99 99 99 97 98 100 100 100 100 98 79
20 22 21 25 17 16 17 14 18 74 73 74 83 75 81 74 64 80 94 98 98 100 98 97 97 98 97 93 78 90 97 98 99 98 99 100 100 100 98 95 93 61 36
7 11 18 26 22 17 19 19 14 11 51 61 54 55 55 66 65 86 87 100 100 100 99 99 100 99 100 100 100 99 98 98 98 99 99 100 99 99 93 68 40 19 11
7 7 7 8 23 21 20 19 17 12 13 43 52 54 64 70 71 100 100 92 99 98 99 97 99 99 100 100 98 100 100 98 99 100 100 99 98 86 48 18 9 8 7
7 6 6 7 6 19 23 18 13 12 20 40 60 70 62 65 100 100 100 95 100 100 100 100 100 100 99 100 100 100 100 100 100 99 97 84 50 18 12 9 9 8 7
8 6 6 5 6 7 15 16 12 11 41 66 71 86 96 91 96 98 99 92 99 100 100 100 100 100 100 100 100 100 100 100 99 93 62 34 14 12 10 9 9 9 10
7 7 6 5 5 6 11 14 12 14 59 73 67 86 100 100 98 100 100 100 100 100 100 100 100 100 100 100 100 100 100 97 73 54 27 15 13 12 11 11 11 12 12
4 5 6 5 4 6 12 15 15 51 82 78 52 63 100 100 100 100 100 100 99 100 100 100 99 100 100 100 100 96 86 62 40 23 16 15 14 14 14 15 14 14 13
2 3 4 4 5 10 16 22 51 81 99 99 72 88 100 100 100 100 100 100 100 100 100 100 100 100 100 97 92 63 50 37 27 18 18 18 17 17 18 16 14 14 12
3 3 4 6 13 17 28 87 78 97 100 100 100 100 100 100 100 99 100 100 100 99 99 100 100 100 97 78 60 50 39 30 23 21 21 21 20 22 20 15 14 13 12
7 7 8 49 64 85 100 100 100 100 100 100 100 100 100 100 99 100 100 98 98 100 100 100 100 82 67 55 49 44 34 28 25 24 24 20 23 23 17 14 13 13 13
98 27 76 100 99 100 100 100 100 100 100 99 100 100 100 100 100 100 100 100 100 100 100 98 71 60 55 53 48 39 34 30 28 27 23 27 26 21 14 13 16 15 9
100 100 100 100 100 100 100 100 100 100 100 100 100 100 100 100 100 100 100 100 100 100 100 82 71 65 60 52 44 39 36 34 36 31 26 24 24 19 16 17 16 10 8
100 99 100 100 100 100 100 100 100 100 100 100 100 100 100 100 100 100 100 100 100 100 94 79 68 61 54 51 47 43 42 45 42 28 24 26 24 18 19 18 11 8 9
100 100 100 100 100 100 100 100 98 100 100 100 100 100 100 100 100 100 100 100 92 79 69 64 66 66 63 60 54 54 54 53 46 27 26 25 19 18 16 10 8 11 17
100 100 100 100 100 100 99 100 100 100 100 100 100 100 100 100 100 100 100 100 97 91 86 86 84 75 70 67 64 64 64 50 32 32 25 21 20 17 10 9 12 17 26